Weather in Trostianets

Ukraine / Vinnytsia Region     49°06′13″N   28°36′22″E
temp.,
°C
wind,
m/s
gust,
m/s
humid.,
%
clouds,
%
prec.,
mm/h
press.,
hPa
HPBL,
m
28 february, sun
sun2823:00+1nnw7129487 0.3 1024753
02:00+1nnw5119085 0.3 1025639
05:000nw5119388 0.1 1025520
08:000nnw6119188 0.1 1026782
11:00+1nnw7107794 0.1 1027997
14:00+3nw6106897 0.2 10261001
17:00+3nw51071100 0.0 1024873
20:00+1nw71297100 0.1 1024753
1 march, mon
mon123:00+1nw51097100 1.3 1023529
02:00+1n5998100 2.0 1024465
05:00+1n5897100 0.3 1025451
08:00+1n4897100 0.3 1028433
11:00+3nne577697 0.1 1030873
14:00+2n578695 0.3 1031568
17:00+2n2582100 0.1 1031484
20:00+2nw2283100 0.1 103369
2 march, tue
tue223:00+1nw3788100 0.1 1033275
02:00+1w368487 0.1 1033159
05:000w499213 0.0 1031271
08:00+1wnw5119141 0.0 1030400
11:00+6wnw7127499 0.0 1028706
14:00+8nw8126385 0.0 10271014
17:00+6nw611730 0.0 1027685
20:00+3nw512870 0.0 1028391
3 march, wed
wed323:00+2nw512890 0.0 1029293
02:00+1nw410910 0.0 1029252
05:00+1nw49910 0.0 1029196
08:00+2nw49880 0.0 1029257
11:00+6nw46730 0.0 1029451
14:00+9nw46620 0.0 1028804
17:00+8nw36670 0.0 1027327
20:00+4nnw23830 0.0 102826
4 march, thu
thu423:00+3nw11880 0.0 102822
02:00+2sw11900 0.0 102722
05:00+1ssw23910 0.0 102623
08:00+2ssw36913 0.0 1024181
11:00+7sw477018 0.0 1022476
14:00+10sw575811 0.0 1019709
17:00+9sw476553 0.0 1017311
20:00+5sw348160 0.0 101680